Vertical_Velocity
1 1 3 1 0 1 -1 -1 -1 -2 -2 -3 0 3 -1 -1 0 -3 1 2 1 -5 -0 3 -2 -3 -2 -0 -3 -2 -1 -2 -2 -3 -1 -3 -2 -1 -1 -1 1 -2 1
1 3 -1 2 2 2 -0 -3 -1 -3 -1 -1 1 -0 2 -0 1 -1 -0 1 -1 -1 -4 0 0 -1 -0 -3 -4 -3 -0 -4 -3 -1 1 -2 -1 -3 -0 0 -3 -2 -2
-1 4 -0 4 1 -4 0 -4 -1 1 -3 -2 -0 1 1 -0 1 2 -0 -1 -3 -1 -2 0 -3 -1 -3 -1 -4 -3 -0 2 -3 -4 -1 -8 9 0 0 0 -1 -2 1
4 2 -4 1 -1 2 -6 2 -2 -1 -2 -1 1 0 1 -2 1 0 1 -1 -1 1 -1 -1 -1 -2 -2 1 0 -3 -2 0 -2 -3 -3 -3 2 -3 -1 -0 -0 -2 -1
6 -1 2 8 -1 4 -3 -3 2 1 -1 -2 -4 5 0 1 -1 -1 -1 -2 0 -0 0 -1 -0 1 -1 1 -1 -2 -1 -2 -0 -2 -4 -2 -5 -2 -0 -0 2 -1 -0
2 12 19 1 -3 3 1 1 2 -0 1 -2 1 1 -4 -1 -4 2 -2 0 0 0 2 -2 2 0 1 -2 -1 1 -2 -2 -3 -2 -3 -2 -0 -2 -0 -0 -1 2 -0
13 28 18 2 16 2 2 -4 4 -1 0 -1 2 -2 -2 -1 -2 -1 -3 -0 1 0 0 -1 -1 -1 -5 -3 1 1 -7 -3 -3 -4 -5 0 -2 -1 -2 -1 -3 -0 -0
39 37 -6 9 10 1 4 -2 -2 -0 1 -2 -0 -1 -1 -1 -3 4 -6 1 -0 -4 -3 2 -3 -0 -1 -1 2 0 1 -1 -1 -3 -6 2 -1 -1 -0 -2 -1 -3 -1
22 30 13 1 -1 0 0 -1 -2 -0 -3 -1 1 -2 -2 -0 4 -6 -1 -0 -2 2 -5 -1 -1 -0 -3 -0 1 2 -0 -1 -1 0 -2 -4 -3 -3 -0 0 -1 -1 -3
120 11 4 6 7 -2 -4 -3 -3 -1 -2 -0 0 4 5 2 -2 -3 -1 -2 -2 -4 -1 -2 -1 0 -3 -2 -1 -2 -1 -0 -1 -2 5 1 -2 -1 -1 -1 2 0 -1
12 -2 -14 -7 -4 -1 -6 2 -1 1 3 0 -1 -2 -0 -1 -2 -1 -7 2 1 0 -2 -1 -0 2 -2 -2 -1 -5 -2 -3 -5 -3 3 -3 -2 0 0 -1 -3 2 2
3 4 5 -1 -3 1 -1 1 3 2 -2 -4 -2 1 -3 -3 0 -2 -5 -1 -0 -2 -1 -3 -0 0 2 -5 -3 -4 -0 -2 -2 -6 8 -0 -2 -4 -2 -2 -2 -2 -1
-5 -9 -10 -3 3 1 2 -0 -3 -2 -3 4 -2 -1 -1 -3 -2 -2 -2 -2 -1 -4 -1 -3 -1 -2 0 1 2 1 0 -1 -0 -6 9 -1 -0 1 -1 -1 -1 -1 -0
-3 -5 -3 -2 -6 -1 0 -0 -7 -1 2 -6 1 1 3 -2 -1 -2 3 2 0 -0 -2 -3 -3 -1 0 -3 1 1 2 1 1 -5 -1 0 0 -1 -2 -3 -1 -1 -1
-4 -0 -0 2 -2 -4 -1 1 1 4 -1 -3 2 2 4 -3 -1 1 6 -6 -0 -1 -5 -5 -2 -5 -1 -3 -1 3 -1 0 4 3 -4 -1 1 -1 -2 -1 -3 -2 -0
3 1 0 -3 2 2 -4 -1 0 -1 0 8 2 -3 -1 -8 1 1 -4 -2 -4 -2 -6 -3 -1 3 0 -1 0 -3 2 4 2 3 3 -5 3 6 5 3 3 0 -2
1 -2 1 -0 4 1 -4 -1 -2 -1 15 2 4 -5 -4 -1 -3 -5 -7 -6 -2 -4 -3 -1 1 -1 1 2 -0 0 -1 -2 3 1 6 2 -6 -3 -2 7 5 -1 -1
-1 1 -1 -1 -1 -1 3 -3 53 6 -2 -3 -2 2 4 2 -1 -3 -1 1 0 -0 -1 -3 -2 -2 -1 -6 -5 -1 -2 2 -0 1 -5 0 -4 11 -15 0 -6 18 -4
-2 -2 1 0 1 1 -0 -1 -4 -4 -2 2 2 -0 0 1 0 -1 1 1 -3 -1 -1 -2 -1 -1 1 4 -3 8 -5 -1 -2 1 -0 -8 -7 -10 -1 1 -5 4 -10
2 3 2 2 -1 -1 -2 -3 -2 -1 -1 -2 -2 -3 -4 -4 -3 -5 3 3 5 2 -0 -4 -1 -2 -5 -6 -2 1 -2 -4 -4 -6 -7 -4 -8 -4 -16 -11 -12 -11 -12
1 1 -1 -0 -2 -2 -2 -0 -1 -0 -3 -5 -6 -3 2 3 4 -1 -6 -6 -1 -2 -4 -2 -1 -2 -0 -2 -7 1 7 2 0 -7 -2 -5 1 -7 -4 -12 -2 -4 -5
-1 -1 -2 -2 -1 -2 -1 -3 -2 -3 -4 -3 1 3 1 -1 -3 -6 5 -1 -3 -1 -1 -0 -2 6 -3 2 -11 -6 6 16 6 -3 -5 -2 -5 0 2 -1 -6 -9 -12
-1 -1 0 -1 -1 -0 -1 -1 -1 -2 0 -5 4 1 2 1 -6 -4 -2 0 1 -1 -0 -1 -6 2 -5 5 -3 -9 -8 -5 -4 13 6 2 3 -13 -7 -13 -3 -7 -14
-1 -1 -1 -0 -1 -1 0 -1 -2 -3 -6 -1 -4 -6 -4 -3 2 0 -2 -2 -2 -2 -1 1 -5 2 2 -5 4 -1 -7 -12 -14 -8 7 1 7 8 -5 -9 -6 -2 -4
-1 -0 -1 -0 1 0 -0 0 0 -0 -3 -2 -2 0 -0 -0 -2 0 -1 0 2 1 -1 1 4 1 -2 -2 -1 -4 -4 -1 -2 -11 -13 9 -8 2 -8 -6 -4 0 1
-1 -2 -1 -0 -1 -1 -2 -1 -1 -2 -4 -6 -3 -0 -3 -2 -1 -0 1 1 1 -0 3 -2 -4 -5 -5 -3 -3 -4 -6 -8 -4 -4 -12 2 -9 5 -5 -2 -3 -2 -1
Height
5841 5841 5841 5840 5839 5839 5838 5837 5836 5835 5834 5833 5832 5832 5833 5833 5834 5834 5834 5834 5833 5834 5833 5832 5831 5831 5830 5828 5826 5823 5822 5823 5821 5821 5820 5820 5819 5817 5815 5814 5813 5812 5811
5836 5838 5837 5835 5836 5835 5834 5834 5832 5831 5831 5830 5830 5830 5831 5832 5832 5832 5833 5833 5832 5831 5831 5830 5829 5829 5827 5825 5823 5821 5820 5819 5817 5816 5816 5816 5817 5815 5813 5812 5811 5809 5808
5832 5833 5831 5830 5832 5831 5830 5830 5829 5828 5828 5827 5827 5828 5829 5830 5831 5832 5832 5832 5831 5830 5829 5828 5827 5825 5823 5822 5820 5819 5817 5816 5814 5814 5813 5811 5814 5811 5810 5810 5808 5807 5806
5827 5826 5823 5825 5826 5825 5826 5826 5824 5822 5823 5823 5824 5826 5828 5828 5829 5829 5829 5829 5828 5827 5827 5826 5824 5822 5820 5819 5818 5817 5816 5815 5814 5812 5811 5808 5809 5808 5808 5807 5805 5804 5803
5822 5817 5816 5818 5820 5821 5822 5820 5819 5819 5820 5821 5821 5823 5825 5825 5827 5827 5826 5825 5825 5824 5822 5821 5820 5819 5818 5816 5814 5813 5812 5810 5810 5809 5808 5806 5804 5803 5803 5803 5802 5801 5799
5815 5812 5813 5809 5812 5816 5817 5816 5814 5816 5817 5818 5819 5822 5824 5825 5825 5825 5824 5823 5822 5820 5820 5818 5816 5815 5813 5812 5811 5809 5808 5806 5806 5804 5803 5802 5801 5799 5798 5797 5798 5796 5795
5810 5806 5807 5807 5808 5811 5812 5811 5813 5814 5814 5816 5818 5821 5823 5823 5823 5822 5821 5820 5819 5817 5816 5815 5813 5811 5810 5809 5807 5806 5805 5802 5801 5799 5797 5798 5796 5794 5793 5792 5791 5791 5789
5806 5798 5806 5807 5808 5807 5806 5807 5811 5813 5814 5815 5817 5820 5820 5820 5819 5818 5818 5816 5816 5815 5812 5811 5809 5807 5807 5805 5803 5803 5800 5797 5796 5793 5792 5793 5791 5789 5788 5786 5785 5784 5783
5800 5796 5801 5803 5802 5803 5803 5807 5810 5812 5814 5816 5817 5819 5818 5817 5817 5817 5814 5814 5812 5811 5809 5807 5805 5803 5801 5800 5800 5797 5795 5792 5791 5788 5786 5786 5785 5784 5782 5781 5779 5779 5777
5808 5791 5796 5800 5802 5803 5806 5809 5810 5812 5813 5815 5815 5815 5816 5817 5814 5813 5812 5811 5809 5806 5804 5803 5801 5800 5798 5795 5792 5790 5788 5787 5785 5783 5783 5780 5779 5778 5776 5775 5774 5773 5772
5797 5795 5798 5800 5800 5802 5803 5808 5809 5810 5811 5813 5813 5813 5812 5811 5811 5809 5807 5805 5804 5802 5800 5798 5796 5794 5791 5789 5787 5783 5782 5781 5779 5778 5778 5775 5773 5771 5770 5768 5768 5768 5767
5796 5796 5798 5801 5803 5804 5804 5806 5807 5808 5810 5810 5810 5810 5808 5806 5806 5803 5801 5799 5797 5796 5793 5791 5789 5788 5787 5785 5782 5780 5777 5775 5773 5771 5773 5768 5766 5765 5764 5763 5762 5761 5761
5800 5800 5801 5802 5802 5803 5803 5804 5806 5807 5807 5806 5806 5804 5801 5801 5800 5797 5795 5793 5791 5790 5787 5786 5784 5782 5781 5780 5777 5774 5771 5769 5767 5764 5765 5762 5760 5758 5757 5756 5755 5755 5755
5799 5799 5800 5801 5802 5802 5804 5805 5805 5804 5803 5803 5801 5797 5797 5796 5795 5793 5790 5788 5786 5784 5782 5781 5778 5777 5774 5772 5771 5768 5765 5762 5760 5757 5754 5756 5752 5751 5750 5749 5748 5747 5747
5799 5799 5800 5801 5801 5801 5801 5802 5801 5801 5800 5798 5796 5795 5794 5792 5789 5787 5786 5785 5780 5780 5777 5775 5771 5768 5765 5763 5760 5760 5757 5755 5753 5750 5745 5746 5746 5743 5741 5740 5739 5738 5738
5799 5800 5800 5800 5799 5800 5800 5799 5799 5798 5797 5796 5793 5790 5789 5787 5784 5782 5779 5776 5773 5770 5766 5766 5762 5758 5755 5753 5752 5749 5748 5745 5743 5742 5738 5733 5736 5734 5733 5731 5730 5729 5728
5799 5800 5799 5799 5799 5799 5798 5797 5796 5794 5794 5791 5789 5787 5784 5780 5778 5775 5771 5768 5763 5760 5758 5755 5751 5749 5745 5744 5741 5739 5737 5735 5733 5730 5728 5725 5721 5721 5720 5721 5720 5718 5716
5799 5800 5799 5798 5798 5797 5796 5795 5789 5788 5788 5785 5783 5780 5776 5773 5768 5765 5763 5762 5757 5754 5750 5746 5742 5739 5737 5733 5731 5730 5727 5724 5720 5717 5714 5712 5708 5707 5704 5704 5704 5706 5702
5798 5798 5797 5797 5796 5795 5794 5792 5790 5788 5785 5781 5777 5772 5768 5763 5758 5756 5754 5751 5747 5744 5740 5736 5732 5729 5726 5724 5721 5719 5714 5710 5707 5704 5700 5696 5693 5691 5690 5688 5685 5685 5684
5797 5797 5795 5794 5792 5791 5789 5787 5785 5781 5777 5773 5769 5764 5760 5756 5753 5750 5748 5744 5740 5735 5730 5726 5722 5718 5714 5710 5708 5706 5702 5697 5692 5688 5684 5681 5678 5675 5669 5669 5667 5667 5662
5792 5791 5790 5788 5787 5786 5784 5782 5778 5775 5771 5767 5763 5761 5758 5755 5750 5744 5737 5732 5728 5724 5718 5713 5709 5706 5701 5696 5691 5689 5687 5681 5676 5669 5665 5660 5656 5653 5649 5646 5644 5641 5641
5789 5788 5787 5785 5784 5782 5779 5776 5774 5769 5766 5763 5760 5756 5748 5742 5737 5732 5727 5722 5716 5711 5706 5701 5696 5693 5688 5682 5676 5670 5669 5667 5660 5651 5644 5638 5630 5625 5621 5618 5616 5612 5611
5786 5784 5783 5781 5779 5777 5774 5771 5768 5765 5762 5757 5752 5746 5741 5735 5729 5723 5718 5712 5707 5701 5695 5689 5683 5680 5673 5667 5661 5655 5648 5642 5635 5629 5622 5614 5605 5596 5589 5583 5580 5578 5575
5783 5781 5778 5776 5774 5772 5770 5766 5763 5759 5754 5748 5742 5736 5731 5725 5720 5714 5708 5701 5695 5688 5683 5677 5670 5664 5657 5650 5642 5633 5624 5616 5608 5604 5592 5582 5574 5565 5555 5548 5543 5540 5536
5779 5777 5775 5773 5771 5768 5765 5762 5757 5752 5746 5740 5734 5728 5723 5717 5710 5704 5697 5690 5683 5676 5669 5662 5655 5647 5638 5630 5620 5610 5601 5593 5583 5571 5567 5553 5539 5527 5516 5509 5504 5501 5497
5776 5774 5771 5769 5766 5763 5758 5754 5748 5742 5736 5730 5724 5719 5712 5706 5699 5693 5685 5677 5669 5661 5654 5645 5638 5630 5621 5611 5601 5589 5575 5562 5549 5535 5524 5518 5507 5503 5494 5488 5482 5479 5477